Time,TemperatureF,DewpointF,PressureIn,WindDirection,WindDirectionDegrees,WindSpeedMPH,WindSpeedGustMPH,Humidity,HourlyPrecipIn,Conditions,Clouds,dailyrainin,SoftwareType,DateUTC
2013-05-12 00:00:00,45.4,41.2,29.85,WNW,286,5.0,11.0,85,0.00,,,0.00,WeatherCatV1.15B25,2013-05-12 04:00:00,
2013-05-12 00:01:00,45.3,40.8,29.86,WNW,298,9.0,9.0,84,0.00,,,0.00,WeatherCatV1.15B25,2013-05-12 04:01:00,
2013-05-12 00:02:00,45.3,40.8,29.86,WNW,289,9.0,9.0,84,0.00,,,0.00,WeatherCatV1.15B25,2013-05-12 04:02:00,
2013-05-12 00:03:00,45.2,40.7,29.86,WNW,288,6.0,9.0,84,0.00,,,0.00,WeatherCatV1.15B25,2013-05-12 04:03:00,
2013-05-12 00:04:00,45.2,40.7,29.85,WSW,239,6.0,9.0,84,0.00,,,0.00,WeatherCatV1.15B25,2013-05-12 04:04:00,
2013-05-12 00:09:00,45.0,39.8,29.86,WNW,294,6.0,12.0,82,0.00,,,0.00,WeatherCatV1.15B25,2013-05-12 04:09:00,
2013-05-12 00:13:00,44.9,39.4,29.86,SW,226,5.0,16.0,81,0.00,,,0.00,WeatherCatV1.15B25,2013-05-12 04:13:00,
2013-05-12 00:18:00,44.6,38.2,29.86,WSW,238,4.0,5.0,78,0.00,,,0.00,WeatherCatV1.15B25,2013-05-12 04:18:00,
2013-05-12 00:23:00,44.4,37.6,29.87,WNW,300,4.0,12.0,77,0.00,,,0.00,WeatherCatV1.15B25,2013-05-12 04:23:00,
2013-05-12 00:28:00,44.3,37.2,29.87,WNW,292,7.0,15.0,76,0.00,,,0.00,WeatherCatV1.15B25,2013-05-12 04:28:00,
2013-05-12 00:33:00,44.3,37.6,29.88,WNW,299,13.0,15.0,77,0.00,,,0.00,WeatherCatV1.15B25,2013-05-12 04:33:00,
2013-05-12 00:38:00,44.2,36.8,29.87,NW,306,5.0,7.0,75,0.00,,,0.00,WeatherCatV1.15B25,2013-05-12 04:38:00,
2013-05-12 00:43:00,44.1,36.4,29.88,WSW,240,11.0,14.0,74,0.00,,,0.00,WeatherCatV1.15B25,2013-05-12 04:43:00,
2013-05-12 00:48:00,44.0,36.3,29.88,WNW,286,2.0,11.0,74,0.00,,,0.00,WeatherCatV1.15B25,2013-05-12 04:48:00,
2013-05-12 00:53:00,44.0,36.3,29.88,WNW,297,4.0,7.0,74,0.00,,,0.00,WeatherCatV1.15B25,2013-05-12 04:53:00,
2013-05-12 00:58:00,44.0,36.3,29.88,WSW,248,1.0,2.0,74,0.00,,,0.00,WeatherCatV1.15B25,2013-05-12 04:58:00,
2013-05-12 01:03:00,43.9,36.2,29.88,WSW,240,5.0,6.0,74,0.00,,,0.00,WeatherCatV1.15B25,2013-05-12 05:03:00,
2013-05-12 01:08:00,43.8,35.7,29.88,WNW,292,4.0,7.0,73,0.00,,,0.00,WeatherCatV1.15B25,2013-05-12 05:08:00,
2013-05-12 01:13:00,43.7,35.3,29.88,NW,304,4.0,11.0,72,0.00,,,0.00,WeatherCatV1.15B25,2013-05-12 05:13:00,
2013-05-12 01:18:00,43.7,35.6,29.88,SW,220,3.0,5.0,73,0.00,,,0.00,WeatherCatV1.15B25,2013-05-12 05:18:00,
2013-05-12 01:23:00,43.5,35.4,29.88,West,278,3.0,9.0,73,0.00,,,0.00,WeatherCatV1.15B25,2013-05-12 05:23:00,
2013-05-12 01:28:00,43.4,34.6,29.89,West,269,2.0,3.0,71,0.00,,,0.00,WeatherCatV1.15B25,2013-05-12 05:28:00,
2013-05-12 01:33:00,43.5,35.8,29.88,WNW,295,3.0,6.0,74,0.00,,,0.00,WeatherCatV1.15B25,2013-05-12 05:33:00,
2013-05-12 01:38:00,43.3,35.6,29.89,WNW,295,4.0,6.0,74,0.00,,,0.00,WeatherCatV1.15B25,2013-05-12 05:38:00,
2013-05-12 01:43:00,43.2,35.5,29.89,WSW,252,4.0,5.0,74,0.00,,,0.00,WeatherCatV1.15B25,2013-05-12 05:43:00,
2013-05-12 01:48:00,43.0,35.3,29.89,West,265,2.0,12.0,74,0.00,,,0.00,WeatherCatV1.15B25,2013-05-12 05:48:00,
2013-05-12 01:53:00,42.8,35.1,29.89,West,259,0.0,6.0,74,0.00,,,0.00,WeatherCatV1.15B25,2013-05-12 05:53:00,
2013-05-12 01:58:00,42.8,35.4,29.89,WSW,249,4.0,5.0,75,0.00,,,0.00,WeatherCatV1.15B25,2013-05-12 05:58:00,
2013-05-12 02:03:00,42.6,35.6,29.89,West,262,2.0,5.0,76,0.00,,,0.00,WeatherCatV1.15B25,2013-05-12 06:03:00,
2013-05-12 02:08:00,42.5,35.1,29.89,SW,230,4.0,9.0,75,0.00,,,0.00,WeatherCatV1.15B25,2013-05-12 06:08:00,
2013-05-12 02:13:00,42.5,35.1,29.89,WSW,250,2.0,3.0,75,0.00,,,0.00,WeatherCatV1.15B25,2013-05-12 06:13:00,
2013-05-12 02:18:00,42.5,35.1,29.89,West,275,4.0,14.0,75,0.00,,,0.00,WeatherCatV1.15B25,2013-05-12 06:18:00,
2013-05-12 02:23:00,42.5,34.8,29.89,WNW,290,3.0,10.0,74,0.00,,,0.00,WeatherCatV1.15B25,2013-05-12 06:23:00,
2013-05-12 02:28:00,42.6,34.9,29.89,NW,309,3.0,5.0,74,0.00,,,0.00,WeatherCatV1.15B25,2013-05-12 06:28:00,
2013-05-12 02:33:00,42.4,34.7,29.89,SW,234,2.0,6.0,74,0.00,,,0.00,WeatherCatV1.15B25,2013-05-12 06:33:00,
2013-05-12 02:38:00,42.4,34.4,29.89,West,276,1.0,7.0,73,0.00,,,0.00,WeatherCatV1.15B25,2013-05-12 06:38:00,
2013-05-12 02:43:00,42.4,34.4,29.89,WSW,248,1.0,3.0,73,0.00,,,0.00,WeatherCatV1.15B25,2013-05-12 06:43:00,
2013-05-12 02:48:00,42.3,34.3,29.89,SW,230,3.0,6.0,73,0.00,,,0.00,WeatherCatV1.15B25,2013-05-12 06:48:00,
2013-05-12 02:53:00,42.3,34.3,29.89,West,280,0.0,8.0,73,0.00,,,0.00,WeatherCatV1.15B25,2013-05-12 06:53:00,
2013-05-12 02:58:00,42.2,34.2,29.89,WNW,296,4.0,5.0,73,0.00,,,0.00,WeatherCatV1.15B25,2013-05-12 06:58:00,
2013-05-12 03:03:00,42.4,34.4,29.89,WSW,244,3.0,3.0,73,0.00,,,0.00,WeatherCatV1.15B25,2013-05-12 07:03:00,
2013-05-12 03:08:00,42.3,34.6,29.89,West,275,4.0,7.0,74,0.00,,,0.00,WeatherCatV1.15B25,2013-05-12 07:08:00,
2013-05-12 03:13:00,42.3,34.3,29.89,WNW,290,2.0,3.0,73,0.00,,,0.00,WeatherCatV1.15B25,2013-05-12 07:13:00,
2013-05-12 03:18:00,42.4,34.0,29.89,West,276,2.0,9.0,72,0.00,,,0.00,WeatherCatV1.15B25,2013-05-12 07:18:00,
2013-05-12 03:23:00,42.4,34.0,29.89,SW,218,2.0,2.0,72,0.00,,,0.00,WeatherCatV1.15B25,2013-05-12 07:23:00,
2013-05-12 03:28:00,42.5,34.1,29.88,WSW,248,0.0,0.0,72,0.00,,,0.00,WeatherCatV1.15B25,2013-05-12 07:28:00,
2013-05-12 03:33:00,42.5,34.1,29.88,SW,223,2.0,4.0,72,0.00,,,0.00,WeatherCatV1.15B25,2013-05-12 07:33:00,
2013-05-12 03:38:00,42.6,33.9,29.88,SW,219,0.0,4.0,71,0.00,,,0.00,WeatherCatV1.15B25,2013-05-12 07:38:00,
2013-05-12 03:43:00,42.4,33.3,29.88,West,259,0.0,0.0,70,0.00,,,0.00,WeatherCatV1.15B25,2013-05-12 07:43:00,
2013-05-12 03:48:00,42.5,33.4,29.88,West,275,2.0,5.0,70,0.00,,,0.00,WeatherCatV1.15B25,2013-05-12 07:48:00,
2013-05-12 03:53:00,42.7,33.6,29.88,SW,223,0.0,3.0,70,0.00,,,0.00,WeatherCatV1.15B25,2013-05-12 07:53:00,
2013-05-12 03:58:00,42.6,33.5,29.88,SW,229,0.0,3.0,70,0.00,,,0.00,WeatherCatV1.15B25,2013-05-12 07:58:00,
2013-05-12 04:03:00,42.6,33.2,29.88,WSW,240,0.0,4.0,69,0.00,,,0.00,WeatherCatV1.15B25,2013-05-12 08:03:00,
2013-05-12 04:08:00,42.6,33.2,29.88,West,267,0.0,0.0,69,0.00,,,0.00,WeatherCatV1.15B25,2013-05-12 08:08:00,
2013-05-12 04:13:00,42.6,33.5,29.87,SW,215,0.0,3.0,70,0.00,,,0.00,WeatherCatV1.15B25,2013-05-12 08:13:00,
2013-05-12 04:18:00,42.8,33.7,29.87,SW,223,0.0,3.0,70,0.00,,,0.00,WeatherCatV1.15B25,2013-05-12 08:18:00,
2013-05-12 04:23:00,42.8,34.1,29.87,SSW,199,2.0,3.0,71,0.00,,,0.00,WeatherCatV1.15B25,2013-05-12 08:23:00,
2013-05-12 04:28:00,42.6,33.9,29.87,SSW,199,0.0,0.0,71,0.00,,,0.00,WeatherCatV1.15B25,2013-05-12 08:28:00,
2013-05-12 04:33:00,42.3,34.3,29.87,SSW,199,0.0,0.0,73,0.00,,,0.00,WeatherCatV1.15B25,2013-05-12 08:33:00,
2013-05-12 04:38:00,41.7,34.0,29.87,SSW,199,0.0,0.0,74,0.00,,,0.00,WeatherCatV1.15B25,2013-05-12 08:38:00,
2013-05-12 04:43:00,41.3,34.3,29.87,SSW,199,0.0,0.0,76,0.00,,,0.00,WeatherCatV1.15B25,2013-05-12 08:43:00,
2013-05-12 04:48:00,40.8,33.8,29.86,SSW,199,0.0,0.0,76,0.00,,,0.00,WeatherCatV1.15B25,2013-05-12 08:48:00,
2013-05-12 04:53:00,40.2,33.6,29.87,SSW,199,0.0,0.0,77,0.00,,,0.00,WeatherCatV1.15B25,2013-05-12 08:53:00,
2013-05-12 04:58:00,39.8,33.5,29.86,SSW,199,0.0,0.0,78,0.00,,,0.00,WeatherCatV1.15B25,2013-05-12 08:58:00,
2013-05-12 05:03:00,39.5,33.5,29.86,SSW,199,0.0,0.0,79,0.00,,,0.00,WeatherCatV1.15B25,2013-05-12 09:03:00,
2013-05-12 05:08:00,39.2,33.6,29.87,SSW,199,0.0,0.0,80,0.00,,,0.00,WeatherCatV1.15B25,2013-05-12 09:08:00,
2013-05-12 05:13:00,39.0,33.4,29.87,SSW,199,0.0,0.0,80,0.00,,,0.00,WeatherCatV1.15B25,2013-05-12 09:13:00,
2013-05-12 05:18:00,38.8,33.5,29.86,SSW,199,0.0,0.0,81,0.00,,,0.00,WeatherCatV1.15B25,2013-05-12 09:18:00,
2013-05-12 05:23:00,38.7,33.4,29.86,SSW,199,0.0,0.0,81,0.00,,,0.00,WeatherCatV1.15B25,2013-05-12 09:23:00,
2013-05-12 05:28:00,38.4,33.4,29.86,SSW,199,0.0,0.0,82,0.00,,,0.00,WeatherCatV1.15B25,2013-05-12 09:28:00,
2013-05-12 05:33:00,38.3,33.3,29.86,SSW,199,0.0,0.0,82,0.00,,,0.00,WeatherCatV1.15B25,2013-05-12 09:33:00,
2013-05-12 05:38:00,38.1,33.1,29.86,SSW,199,0.0,0.0,82,0.00,,,0.00,WeatherCatV1.15B25,2013-05-12 09:38:00,
2013-05-12 05:43:00,37.9,33.2,29.86,SSW,199,0.0,0.0,83,0.00,,,0.00,WeatherCatV1.15B25,2013-05-12 09:43:00,
2013-05-12 05:48:00,37.8,33.1,29.86,SSW,199,0.0,0.0,83,0.00,,,0.00,WeatherCatV1.15B25,2013-05-12 09:48:00,
2013-05-12 05:53:00,37.7,33.3,29.86,SSW,199,0.0,0.0,84,0.00,,,0.00,WeatherCatV1.15B25,2013-05-12 09:53:00,
2013-05-12 05:58:00,37.6,33.2,29.86,SSW,199,0.0,0.0,84,0.00,,,0.00,WeatherCatV1.15B25,2013-05-12 09:58:00,
2013-05-12 06:03:00,37.6,33.2,29.86,SSW,199,0.0,0.0,84,0.00,,,0.00,WeatherCatV1.15B25,2013-05-12 10:03:00,
2013-05-12 06:08:00,37.6,33.2,29.86,SSW,199,0.0,0.0,84,0.00,,,0.00,WeatherCatV1.15B25,2013-05-12 10:08:00,
2013-05-12 06:13:00,37.4,33.3,29.86,SE,142,0.0,0.0,85,0.00,,,0.00,WeatherCatV1.15B25,2013-05-12 10:13:00,
2013-05-12 06:18:00,37.3,33.2,29.86,SE,136,0.0,0.0,85,0.00,,,0.00,WeatherCatV1.15B25,2013-05-12 10:18:00,
2013-05-12 06:23:00,37.2,33.1,29.86,SE,136,0.0,0.0,85,0.00,,,0.00,WeatherCatV1.15B25,2013-05-12 10:23:00,
2013-05-12 06:28:00,37.3,33.2,29.86,SE,136,0.0,0.0,85,0.00,,,0.00,WeatherCatV1.15B25,2013-05-12 10:28:00,
2013-05-12 06:33:00,37.4,33.6,29.86,SE,136,0.0,0.0,86,0.00,,,0.00,WeatherCatV1.15B25,2013-05-12 10:33:00,
2013-05-12 06:38:00,37.5,33.7,29.86,SE,136,0.0,0.0,86,0.00,,,0.00,WeatherCatV1.15B25,2013-05-12 10:38:00,
2013-05-12 06:43:00,37.8,34.0,29.87,SE,136,1.0,2.0,86,0.00,,,0.00,WeatherCatV1.15B25,2013-05-12 10:43:00,
2013-05-12 06:48:00,38.2,34.4,29.87,SSE,156,0.0,2.0,86,0.00,,,0.00,WeatherCatV1.15B25,2013-05-12 10:48:00,
2013-05-12 06:53:00,38.5,34.7,29.87,West,261,1.0,2.0,86,0.00,,,0.00,WeatherCatV1.15B25,2013-05-12 10:53:00,
2013-05-12 06:58:00,38.8,35.0,29.87,West,259,0.0,0.0,86,0.00,,,0.00,WeatherCatV1.15B25,2013-05-12 10:58:00,
2013-05-12 07:03:00,39.1,35.3,29.86,West,259,0.0,2.0,86,0.00,,,0.00,WeatherCatV1.15B25,2013-05-12 11:03:00,
2013-05-12 07:08:00,39.5,35.4,29.87,West,259,0.0,2.0,85,0.00,,,0.00,WeatherCatV1.15B25,2013-05-12 11:08:00,
2013-05-12 07:13:00,39.8,35.7,29.86,West,259,0.0,0.0,85,0.00,,,0.00,WeatherCatV1.15B25,2013-05-12 11:13:00,
2013-05-12 07:18:00,40.1,36.0,29.86,SSW,200,1.0,4.0,85,0.00,,,0.00,WeatherCatV1.15B25,2013-05-12 11:18:00,
2013-05-12 07:23:00,40.3,35.9,29.86,SSW,199,0.0,0.0,84,0.00,,,0.00,WeatherCatV1.15B25,2013-05-12 11:23:00,
2013-05-12 07:28:00,40.6,36.2,29.86,SSW,199,2.0,4.0,84,0.00,,,0.00,WeatherCatV1.15B25,2013-05-12 11:28:00,
2013-05-12 07:33:00,41.0,36.2,29.86,SSE,161,0.0,0.0,83,0.00,,,0.00,WeatherCatV1.15B25,2013-05-12 11:33:00,
2013-05-12 07:38:00,41.5,36.4,29.86,West,260,0.0,2.0,82,0.00,,,0.00,WeatherCatV1.15B25,2013-05-12 11:38:00,
2013-05-12 07:43:00,41.9,36.2,29.87,SW,232,3.0,6.0,80,0.00,,,0.00,WeatherCatV1.15B25,2013-05-12 11:43:00,
2013-05-12 07:48:00,42.3,35.9,29.87,West,265,0.0,3.0,78,0.00,,,0.00,WeatherCatV1.15B25,2013-05-12 11:48:00,
2013-05-12 07:53:00,43.3,36.3,29.87,SSW,212,4.0,8.0,76,0.00,,,0.00,WeatherCatV1.15B25,2013-05-12 11:53:00,
2013-05-12 07:58:00,44.2,36.1,29.87,WSW,242,3.0,8.0,73,0.00,,,0.00,WeatherCatV1.15B25,2013-05-12 11:58:00,
2013-05-12 08:03:00,44.7,35.9,29.87,WNW,294,7.0,13.0,71,0.00,,,0.00,WeatherCatV1.15B25,2013-05-12 12:03:00,
2013-05-12 08:08:00,44.8,35.3,29.87,WNW,289,3.0,12.0,69,0.00,,,0.00,WeatherCatV1.15B25,2013-05-12 12:08:00,
2013-05-12 08:13:00,44.9,34.6,29.88,West,281,6.0,11.0,67,0.00,,,0.00,WeatherCatV1.15B25,2013-05-12 12:13:00,
2013-05-12 08:18:00,44.8,34.1,29.88,WSW,244,3.0,13.0,66,0.00,,,0.00,WeatherCatV1.15B25,2013-05-12 12:18:00,
2013-05-12 08:23:00,44.3,33.7,29.88,NW,310,6.0,11.0,66,0.00,,,0.00,WeatherCatV1.15B25,2013-05-12 12:23:00,
2013-05-12 08:28:00,44.1,33.5,29.88,WNW,296,3.0,10.0,66,0.00,,,0.00,WeatherCatV1.15B25,2013-05-12 12:28:00,
2013-05-12 08:33:00,44.1,33.9,29.88,WSW,238,3.0,9.0,67,0.00,,,0.00,WeatherCatV1.15B25,2013-05-12 12:33:00,
2013-05-12 08:39:00,44.2,33.6,29.88,SW,219,4.0,10.0,66,0.00,,,0.00,WeatherCatV1.15B25,2013-05-12 12:39:00,
2013-05-12 08:44:00,44.2,33.9,29.88,West,264,4.0,9.0,67,0.00,,,0.00,WeatherCatV1.15B25,2013-05-12 12:44:00,
2013-05-12 08:49:00,44.3,34.4,29.88,SW,222,5.0,11.0,68,0.00,,,0.00,WeatherCatV1.15B25,2013-05-12 12:49:00,
2013-05-12 08:54:00,44.7,34.8,29.88,SW,234,7.0,12.0,68,0.00,,,0.00,WeatherCatV1.15B25,2013-05-12 12:54:00,
2013-05-12 08:59:00,44.8,35.3,29.88,WSW,244,10.0,14.0,69,0.00,,,0.00,WeatherCatV1.15B25,2013-05-12 12:59:00,
2013-05-12 09:04:00,45.0,35.5,29.88,WSW,256,11.0,11.0,69,0.00,,,0.00,WeatherCatV1.15B25,2013-05-12 13:04:00,
2013-05-12 09:09:00,45.3,35.0,29.88,West,261,5.0,16.0,67,0.00,,,0.00,WeatherCatV1.15B25,2013-05-12 13:09:00,
2013-05-12 09:14:00,45.7,34.6,29.88,WSW,257,7.0,14.0,65,0.00,,,0.00,WeatherCatV1.15B25,2013-05-12 13:14:00,
2013-05-12 09:19:00,46.0,34.9,29.88,SSW,207,6.0,9.0,65,0.00,,,0.00,WeatherCatV1.15B25,2013-05-12 13:19:00,
2013-05-12 09:24:00,45.9,34.4,29.88,West,259,2.0,9.0,64,0.00,,,0.00,WeatherCatV1.15B25,2013-05-12 13:24:00,
2013-05-12 09:29:00,45.9,34.4,29.88,West,281,6.0,11.0,64,0.00,,,0.00,WeatherCatV1.15B25,2013-05-12 13:29:00,
2013-05-12 09:34:00,45.8,35.1,29.88,WNW,288,6.0,15.0,66,0.00,,,0.00,WeatherCatV1.15B25,2013-05-12 13:34:00,
2013-05-12 09:39:00,45.7,35.0,29.89,West,259,4.0,10.0,66,0.00,,,0.00,WeatherCatV1.15B25,2013-05-12 13:39:00,
2013-05-12 09:44:00,45.5,34.0,29.89,SSW,210,10.0,14.0,64,0.00,,,0.00,WeatherCatV1.15B25,2013-05-12 13:44:00,
2013-05-12 09:49:00,45.5,33.6,29.89,SW,214,4.0,14.0,63,0.00,,,0.00,WeatherCatV1.15B25,2013-05-12 13:49:00,
2013-05-12 09:54:00,45.7,34.2,29.89,West,281,7.0,11.0,64,0.00,,,0.00,WeatherCatV1.15B25,2013-05-12 13:54:00,
2013-05-12 09:59:00,45.1,33.3,29.89,West,259,6.0,10.0,63,0.00,,,0.00,WeatherCatV1.15B25,2013-05-12 13:59:00,
2013-05-12 10:04:00,44.7,34.0,29.90,WSW,241,6.0,10.0,66,0.00,,,0.00,WeatherCatV1.15B25,2013-05-12 14:04:00,
2013-05-12 10:09:00,44.8,34.1,29.90,WSW,238,4.0,13.0,66,0.00,,,0.00,WeatherCatV1.15B25,2013-05-12 14:09:00,
2013-05-12 10:14:00,44.6,34.0,29.90,SW,229,6.0,11.0,66,0.00,,,0.00,WeatherCatV1.15B25,2013-05-12 14:14:00,
2013-05-12 10:19:00,45.5,34.8,29.90,WSW,254,6.0,14.0,66,0.00,,,0.00,WeatherCatV1.15B25,2013-05-12 14:19:00,
2013-05-12 10:24:00,45.4,35.1,29.90,WSW,256,6.0,11.0,67,0.00,,,0.00,WeatherCatV1.15B25,2013-05-12 14:24:00,
2013-05-12 10:29:00,45.1,34.8,29.90,West,273,6.0,11.0,67,0.00,,,0.00,WeatherCatV1.15B25,2013-05-12 14:29:00,
2013-05-12 10:34:00,45.5,34.0,29.90,SW,227,5.0,9.0,64,0.00,,,0.00,WeatherCatV1.15B25,2013-05-12 14:34:00,
2013-05-12 10:39:00,45.6,33.7,29.90,West,261,5.0,11.0,63,0.00,,,0.00,WeatherCatV1.15B25,2013-05-12 14:39:00,
2013-05-12 10:44:00,45.4,33.2,29.90,SW,234,14.0,17.0,62,0.00,,,0.00,WeatherCatV1.15B25,2013-05-12 14:44:00,
2013-05-12 10:49:00,45.9,34.8,29.91,WSW,255,11.0,11.0,65,0.00,,,0.00,WeatherCatV1.15B25,2013-05-12 14:49:00,
2013-05-12 10:54:00,45.5,34.0,29.91,SW,221,5.0,13.0,64,0.00,,,0.00,WeatherCatV1.15B25,2013-05-12 14:54:00,
2013-05-12 10:59:00,45.1,33.3,29.91,West,279,9.0,14.0,63,0.00,,,0.00,WeatherCatV1.15B25,2013-05-12 14:59:00,
2013-05-12 11:04:00,45.0,34.3,29.91,WNW,290,8.0,13.0,66,0.00,,,0.00,WeatherCatV1.15B25,2013-05-12 15:04:00,
2013-05-12 11:09:00,46.1,33.4,29.92,WSW,242,5.0,12.0,61,0.00,,,0.00,WeatherCatV1.15B25,2013-05-12 15:09:00,
2013-05-12 11:14:00,45.7,32.6,29.92,WNW,300,9.0,18.0,60,0.00,,,0.00,WeatherCatV1.15B25,2013-05-12 15:14:00,
2013-05-12 11:19:00,46.4,34.1,29.92,WSW,246,7.0,14.0,62,0.00,,,0.00,WeatherCatV1.15B25,2013-05-12 15:19:00,
2013-05-12 11:24:00,46.1,34.2,29.92,SSW,210,12.0,12.0,63,0.00,,,0.00,WeatherCatV1.15B25,2013-05-12 15:24:00,
2013-05-12 11:29:00,46.0,33.3,29.92,SW,219,4.0,10.0,61,0.00,,,0.00,WeatherCatV1.15B25,2013-05-12 15:29:00,
2013-05-12 11:34:00,46.4,32.4,29.92,SW,226,14.0,14.0,58,0.00,,,0.00,WeatherCatV1.15B25,2013-05-12 15:34:00,
2013-05-12 11:39:00,46.7,33.1,29.92,SSW,201,11.0,13.0,59,0.00,,,0.00,WeatherCatV1.15B25,2013-05-12 15:39:00,
2013-05-12 11:44:00,46.4,34.1,29.92,WSW,244,4.0,8.0,62,0.00,,,0.00,WeatherCatV1.15B25,2013-05-12 15:44:00,
2013-05-12 11:49:00,46.8,34.1,29.92,SW,229,6.0,7.0,61,0.00,,,0.00,WeatherCatV1.15B25,2013-05-12 15:49:00,
2013-05-12 11:54:00,47.8,34.2,29.92,SW,219,3.0,9.0,59,0.00,,,0.00,WeatherCatV1.15B25,2013-05-12 15:54:00,
2013-05-12 11:59:00,47.3,33.3,29.92,SW,229,9.0,16.0,58,0.00,,,0.00,WeatherCatV1.15B25,2013-05-12 15:59:00,
2013-05-12 12:04:00,46.9,32.0,29.92,West,261,5.0,9.0,56,0.00,,,0.00,WeatherCatV1.15B25,2013-05-12 16:04:00,
2013-05-12 12:09:00,46.8,31.5,29.92,SW,223,10.0,11.0,55,0.00,,,0.00,WeatherCatV1.15B25,2013-05-12 16:09:00,
2013-05-12 12:14:00,46.6,31.3,29.92,WSW,250,11.0,14.0,55,0.00,,,0.00,WeatherCatV1.15B25,2013-05-12 16:14:00,
2013-05-12 12:19:00,46.2,30.9,29.92,NW,307,5.0,19.0,55,0.00,,,0.00,WeatherCatV1.15B25,2013-05-12 16:19:00,
2013-05-12 12:24:00,46.5,32.1,29.92,SW,236,3.0,11.0,57,0.00,,,0.00,WeatherCatV1.15B25,2013-05-12 16:24:00,
2013-05-12 12:29:00,46.9,31.6,29.92,SSW,209,5.0,9.0,55,0.00,,,0.00,WeatherCatV1.15B25,2013-05-12 16:29:00,
2013-05-12 12:34:00,47.7,33.7,29.92,WSW,245,7.0,10.0,58,0.00,,,0.00,WeatherCatV1.15B25,2013-05-12 16:34:00,
2013-05-12 12:39:00,47.9,33.0,29.92,SSW,213,3.0,14.0,56,0.00,,,0.00,WeatherCatV1.15B25,2013-05-12 16:39:00,
2013-05-12 12:44:00,48.0,31.2,29.92,WSW,256,9.0,13.0,52,0.00,,,0.00,WeatherCatV1.15B25,2013-05-12 16:44:00,
2013-05-12 12:49:00,47.9,32.1,29.92,West,273,10.0,13.0,54,0.00,,,0.00,WeatherCatV1.15B25,2013-05-12 16:49:00,
2013-05-12 12:54:00,48.2,34.1,29.92,WSW,240,4.0,10.0,58,0.00,,,0.00,WeatherCatV1.15B25,2013-05-12 16:54:00,
2013-05-12 12:59:00,48.5,32.2,29.92,West,260,7.0,11.0,53,0.00,,,0.00,WeatherCatV1.15B25,2013-05-12 16:59:00,
2013-05-12 13:04:00,47.8,32.9,29.92,WSW,248,3.0,15.0,56,0.00,,,0.00,WeatherCatV1.15B25,2013-05-12 17:04:00,
2013-05-12 13:09:00,48.3,31.0,29.92,WNW,300,11.0,16.0,51,0.00,,,0.00,WeatherCatV1.15B25,2013-05-12 17:09:00,
2013-05-12 13:14:00,47.7,31.4,29.92,SW,222,5.0,14.0,53,0.00,,,0.00,WeatherCatV1.15B25,2013-05-12 17:14:00,
2013-05-12 13:19:00,48.1,33.6,29.93,West,269,13.0,14.0,57,0.00,,,0.00,WeatherCatV1.15B25,2013-05-12 17:19:00,
2013-05-12 13:24:00,47.7,32.3,29.93,SW,232,6.0,12.0,55,0.00,,,0.00,WeatherCatV1.15B25,2013-05-12 17:24:00,
2013-05-12 13:29:00,47.4,32.5,29.93,NW,313,6.0,11.0,56,0.00,,,0.00,WeatherCatV1.15B25,2013-05-12 17:29:00,
2013-05-12 13:34:00,47.9,33.0,29.93,West,259,13.0,13.0,56,0.00,,,0.00,WeatherCatV1.15B25,2013-05-12 17:34:00,
2013-05-12 13:39:00,48.6,33.6,29.93,NW,317,5.0,9.0,56,0.00,,,0.00,WeatherCatV1.15B25,2013-05-12 17:39:00,
2013-05-12 13:44:00,48.9,33.5,29.93,WSW,244,5.0,10.0,55,0.00,,,0.00,WeatherCatV1.15B25,2013-05-12 17:44:00,
2013-05-12 13:49:00,48.4,33.9,29.93,SW,221,7.0,17.0,57,0.00,,,0.00,WeatherCatV1.15B25,2013-05-12 17:49:00,
2013-05-12 13:54:00,48.6,32.3,29.93,West,281,10.0,18.0,53,0.00,,,0.00,WeatherCatV1.15B25,2013-05-12 17:54:00,
2013-05-12 13:59:00,47.9,32.1,29.93,WSW,252,5.0,10.0,54,0.00,,,0.00,WeatherCatV1.15B25,2013-05-12 17:59:00,
2013-05-12 14:04:00,48.4,34.3,29.93,WSW,253,11.0,14.0,58,0.00,,,0.00,WeatherCatV1.15B25,2013-05-12 18:04:00,
2013-05-12 14:09:00,48.0,32.6,29.93,WSW,255,5.0,13.0,55,0.00,,,0.00,WeatherCatV1.15B25,2013-05-12 18:09:00,
2013-05-12 14:14:00,48.9,34.8,29.93,SW,225,4.0,11.0,58,0.00,,,0.00,WeatherCatV1.15B25,2013-05-12 18:14:00,
2013-05-12 14:19:00,48.6,33.6,29.94,NW,311,10.0,14.0,56,0.00,,,0.00,WeatherCatV1.15B25,2013-05-12 18:19:00,
2013-05-12 14:24:00,48.0,33.5,29.93,WSW,254,10.0,12.0,57,0.00,,,0.00,WeatherCatV1.15B25,2013-05-12 18:24:00,
2013-05-12 14:29:00,48.3,32.9,29.94,WSW,252,10.0,19.0,55,0.00,,,0.00,WeatherCatV1.15B25,2013-05-12 18:29:00,
2013-05-12 14:34:00,49.1,35.0,29.94,NW,317,4.0,7.0,58,0.00,,,0.00,WeatherCatV1.15B25,2013-05-12 18:34:00,
2013-05-12 14:39:00,49.2,32.8,29.94,SW,219,7.0,16.0,53,0.00,,,0.00,WeatherCatV1.15B25,2013-05-12 18:39:00,
2013-05-12 14:44:00,49.9,34.8,29.94,WSW,241,7.0,15.0,56,0.00,,,0.00,WeatherCatV1.15B25,2013-05-12 18:44:00,
2013-05-12 14:49:00,48.8,32.4,29.94,SW,219,13.0,17.0,53,0.00,,,0.00,WeatherCatV1.15B25,2013-05-12 18:49:00,
2013-05-12 14:54:00,48.3,33.3,29.94,WSW,243,5.0,7.0,56,0.00,,,0.00,WeatherCatV1.15B25,2013-05-12 18:54:00,
2013-05-12 14:59:00,47.6,31.8,29.94,SW,229,5.0,20.0,54,0.00,,,0.00,WeatherCatV1.15B25,2013-05-12 18:59:00,
2013-05-12 15:04:00,47.4,32.9,29.94,SW,215,9.0,19.0,57,0.00,,,0.00,WeatherCatV1.15B25,2013-05-12 19:04:00,
2013-05-12 15:09:00,47.5,33.0,29.94,SW,218,7.0,18.0,57,0.00,,,0.00,WeatherCatV1.15B25,2013-05-12 19:09:00,
2013-05-12 15:14:00,49.3,36.4,29.93,WNW,296,3.0,14.0,61,0.00,,,0.00,WeatherCatV1.15B25,2013-05-12 19:14:00,
2013-05-12 15:19:00,49.2,32.3,29.94,WSW,237,10.0,16.0,52,0.00,,,0.00,WeatherCatV1.15B25,2013-05-12 19:19:00,
2013-05-12 15:24:00,48.7,31.9,29.94,SW,230,9.0,14.0,52,0.00,,,0.00,WeatherCatV1.15B25,2013-05-12 19:24:00,
2013-05-12 15:29:00,48.9,32.1,29.93,West,269,6.0,16.0,52,0.00,,,0.00,WeatherCatV1.15B25,2013-05-12 19:29:00,
2013-05-12 15:34:00,48.9,33.0,29.94,SSW,207,5.0,13.0,54,0.00,,,0.00,WeatherCatV1.15B25,2013-05-12 19:34:00,
2013-05-12 15:39:00,49.7,33.3,29.93,West,272,7.0,10.0,53,0.00,,,0.00,WeatherCatV1.15B25,2013-05-12 19:39:00,
2013-05-12 15:44:00,49.7,33.7,29.93,West,264,12.0,12.0,54,0.00,,,0.00,WeatherCatV1.15B25,2013-05-12 19:44:00,
2013-05-12 15:49:00,49.6,33.2,29.93,WSW,251,9.0,13.0,53,0.00,,,0.00,WeatherCatV1.15B25,2013-05-12 19:49:00,
2013-05-12 15:54:00,50.0,34.5,29.93,SSW,207,14.0,18.0,55,0.00,,,0.00,WeatherCatV1.15B25,2013-05-12 19:54:00,
2013-05-12 15:59:00,49.5,33.1,29.94,West,273,5.0,16.0,53,0.00,,,0.00,WeatherCatV1.15B25,2013-05-12 19:59:00,
2013-05-12 16:04:00,49.6,32.7,29.94,SSW,206,11.0,15.0,52,0.00,,,0.00,WeatherCatV1.15B25,2013-05-12 20:04:00,
2013-05-12 16:09:00,49.5,34.0,29.94,SW,236,6.0,12.0,55,0.00,,,0.00,WeatherCatV1.15B25,2013-05-12 20:09:00,
2013-05-12 16:14:00,49.8,34.3,29.94,WNW,299,5.0,7.0,55,0.00,,,0.00,WeatherCatV1.15B25,2013-05-12 20:14:00,
2013-05-12 16:19:00,49.5,32.1,29.94,SSW,205,13.0,20.0,51,0.00,,,0.00,WeatherCatV1.15B25,2013-05-12 20:19:00,
2013-05-12 16:24:00,49.3,32.4,29.94,South,189,16.0,16.0,52,0.00,,,0.00,WeatherCatV1.15B25,2013-05-12 20:24:00,
2013-05-12 16:29:00,49.5,33.1,29.94,West,273,4.0,13.0,53,0.00,,,0.00,WeatherCatV1.15B25,2013-05-12 20:29:00,
2013-05-12 16:34:00,50.2,34.2,29.95,SW,226,9.0,17.0,54,0.00,,,0.00,WeatherCatV1.15B25,2013-05-12 20:34:00,
2013-05-12 16:39:00,49.7,32.8,29.94,WSW,257,6.0,13.0,52,0.00,,,0.00,WeatherCatV1.15B25,2013-05-12 20:39:00,
2013-05-12 16:44:00,49.6,32.7,29.94,SW,227,10.0,16.0,52,0.00,,,0.00,WeatherCatV1.15B25,2013-05-12 20:44:00,
2013-05-12 16:49:00,49.7,33.3,29.94,West,263,14.0,15.0,53,0.00,,,0.00,WeatherCatV1.15B25,2013-05-12 20:49:00,
2013-05-12 16:54:00,49.7,32.8,29.95,WSW,246,18.0,18.0,52,0.00,,,0.00,WeatherCatV1.15B25,2013-05-12 20:54:00,
2013-05-12 16:59:00,49.6,32.2,29.95,SSW,201,12.0,20.0,51,0.00,,,0.00,WeatherCatV1.15B25,2013-05-12 20:59:00,
2013-05-12 17:04:00,49.4,33.0,29.95,South,190,10.0,18.0,53,0.00,,,0.00,WeatherCatV1.15B25,2013-05-12 21:04:00,
2013-05-12 17:09:00,49.2,32.3,29.96,WSW,246,9.0,17.0,52,0.00,,,0.00,WeatherCatV1.15B25,2013-05-12 21:09:00,
2013-05-12 17:14:00,48.6,32.3,29.95,WSW,237,10.0,14.0,53,0.00,,,0.00,WeatherCatV1.15B25,2013-05-12 21:14:00,
2013-05-12 17:19:00,48.6,32.3,29.95,WNW,284,4.0,14.0,53,0.00,,,0.00,WeatherCatV1.15B25,2013-05-12 21:19:00,
2013-05-12 17:24:00,49.2,33.7,29.95,SW,236,12.0,14.0,55,0.00,,,0.00,WeatherCatV1.15B25,2013-05-12 21:24:00,
2013-05-12 17:29:00,49.9,32.5,29.95,SW,227,7.0,11.0,51,0.00,,,0.00,WeatherCatV1.15B25,2013-05-12 21:29:00,
2013-05-12 17:34:00,49.8,32.4,29.95,SW,221,13.0,13.0,51,0.00,,,0.00,WeatherCatV1.15B25,2013-05-12 21:34:00,
2013-05-12 17:39:00,48.8,31.5,29.96,WSW,248,9.0,15.0,51,0.00,,,0.00,WeatherCatV1.15B25,2013-05-12 21:39:00,
2013-05-12 17:44:00,48.3,32.4,29.96,SW,236,5.0,10.0,54,0.00,,,0.00,WeatherCatV1.15B25,2013-05-12 21:44:00,
2013-05-12 17:49:00,48.6,33.2,29.95,WSW,237,10.0,17.0,55,0.00,,,0.00,WeatherCatV1.15B25,2013-05-12 21:49:00,
2013-05-12 17:54:00,49.1,32.7,29.96,West,265,12.0,14.0,53,0.00,,,0.00,WeatherCatV1.15B25,2013-05-12 21:54:00,
2013-05-12 17:59:00,49.5,33.6,29.96,SSW,211,8.0,14.0,54,0.00,,,0.00,WeatherCatV1.15B25,2013-05-12 21:59:00,
2013-05-12 18:04:00,50.2,33.3,29.95,SSW,202,5.0,9.0,52,0.00,,,0.00,WeatherCatV1.15B25,2013-05-12 22:04:00,
2013-05-12 18:09:00,49.7,32.8,29.95,SW,236,17.0,17.0,52,0.00,,,0.00,WeatherCatV1.15B25,2013-05-12 22:09:00,
2013-05-12 18:14:00,49.1,32.2,29.95,West,273,11.0,13.0,52,0.00,,,0.00,WeatherCatV1.15B25,2013-05-12 22:14:00,
2013-05-12 18:19:00,48.8,33.4,29.96,WSW,248,4.0,7.0,55,0.00,,,0.00,WeatherCatV1.15B25,2013-05-12 22:19:00,
2013-05-12 18:24:00,48.8,33.4,29.96,SW,217,6.0,15.0,55,0.00,,,0.00,WeatherCatV1.15B25,2013-05-12 22:24:00,
2013-05-12 18:29:00,48.7,33.3,29.96,SSW,213,7.0,9.0,55,0.00,,,0.00,WeatherCatV1.15B25,2013-05-12 22:29:00,
2013-05-12 18:34:00,48.7,33.3,29.96,West,268,3.0,11.0,55,0.00,,,0.00,WeatherCatV1.15B25,2013-05-12 22:34:00,
2013-05-12 18:39:00,49.5,33.6,29.96,West,268,4.0,13.0,54,0.00,,,0.00,WeatherCatV1.15B25,2013-05-12 22:39:00,
2013-05-12 18:44:00,49.1,33.2,29.96,WSW,240,3.0,16.0,54,0.00,,,0.00,WeatherCatV1.15B25,2013-05-12 22:44:00,
2013-05-12 18:49:00,48.9,33.9,29.96,WSW,255,4.0,12.0,56,0.00,,,0.00,WeatherCatV1.15B25,2013-05-12 22:49:00,
2013-05-12 18:54:00,48.7,32.8,29.96,SSW,212,13.0,16.0,54,0.00,,,0.00,WeatherCatV1.15B25,2013-05-12 22:54:00,
2013-05-12 18:59:00,48.6,32.7,29.96,SSW,196,8.0,13.0,54,0.00,,,0.00,WeatherCatV1.15B25,2013-05-12 22:59:00,
2013-05-12 19:04:00,48.6,33.6,29.96,SSW,205,10.0,11.0,56,0.00,,,0.00,WeatherCatV1.15B25,2013-05-12 23:04:00,
2013-05-12 19:09:00,48.6,33.2,29.96,WNW,289,8.0,11.0,55,0.00,,,0.00,WeatherCatV1.15B25,2013-05-12 23:09:00,
2013-05-12 19:14:00,48.5,33.5,29.96,SSW,196,6.0,10.0,56,0.00,,,0.00,WeatherCatV1.15B25,2013-05-12 23:14:00,
2013-05-12 19:19:00,48.5,33.5,29.96,WNW,290,4.0,9.0,56,0.00,,,0.00,WeatherCatV1.15B25,2013-05-12 23:19:00,
2013-05-12 19:24:00,48.5,32.6,29.96,WSW,248,12.0,13.0,54,0.00,,,0.00,WeatherCatV1.15B25,2013-05-12 23:24:00,
2013-05-12 19:29:00,48.5,33.5,29.96,WSW,238,6.0,10.0,56,0.00,,,0.00,WeatherCatV1.15B25,2013-05-12 23:29:00,
2013-05-12 19:34:00,48.4,34.3,29.97,West,276,4.0,7.0,58,0.00,,,0.00,WeatherCatV1.15B25,2013-05-12 23:34:00,
2013-05-12 19:39:00,48.3,33.8,29.97,SSW,206,6.0,10.0,57,0.00,,,0.00,WeatherCatV1.15B25,2013-05-12 23:39:00,
2013-05-12 19:44:00,48.2,34.1,29.97,West,279,3.0,14.0,58,0.00,,,0.00,WeatherCatV1.15B25,2013-05-12 23:44:00,
2013-05-12 19:49:00,48.2,34.1,29.97,WSW,246,9.0,16.0,58,0.00,,,0.00,WeatherCatV1.15B25,2013-05-12 23:49:00,
2013-05-12 19:54:00,48.0,33.5,29.97,WSW,249,4.0,7.0,57,0.00,,,0.00,WeatherCatV1.15B25,2013-05-12 23:54:00,
2013-05-12 19:59:00,48.0,34.4,29.97,WNW,292,3.0,7.0,59,0.00,,,0.00,WeatherCatV1.15B25,2013-05-12 23:59:00,
2013-05-12 20:04:00,47.9,33.0,29.98,SW,236,4.0,9.0,56,0.00,,,0.00,WeatherCatV1.15B25,2013-05-13 00:04:00,
2013-05-12 20:09:00,47.5,33.9,29.98,WNW,283,4.0,13.0,59,0.00,,,0.00,WeatherCatV1.15B25,2013-05-13 00:09:00,
2013-05-12 20:14:00,47.0,34.3,29.98,WSW,253,4.0,10.0,61,0.00,,,0.00,WeatherCatV1.15B25,2013-05-13 00:14:00,
2013-05-12 20:19:00,46.2,33.9,29.98,WNW,286,0.0,6.0,62,0.00,,,0.00,WeatherCatV1.15B25,2013-05-13 00:19:00,
2013-05-12 20:24:00,46.0,33.7,29.99,West,267,6.0,11.0,62,0.00,,,0.00,WeatherCatV1.15B25,2013-05-13 00:24:00,
2013-05-12 20:29:00,46.2,33.9,29.99,West,266,0.0,6.0,62,0.00,,,0.00,WeatherCatV1.15B25,2013-05-13 00:29:00,
2013-05-12 20:34:00,46.3,33.6,29.99,NW,322,5.0,5.0,61,0.00,,,0.00,WeatherCatV1.15B25,2013-05-13 00:34:00,
2013-05-12 20:39:00,46.4,33.3,30.00,WNW,296,5.0,11.0,60,0.00,,,0.00,WeatherCatV1.15B25,2013-05-13 00:39:00,
2013-05-12 20:44:00,46.2,32.2,30.00,SW,236,7.0,9.0,58,0.00,,,0.00,WeatherCatV1.15B25,2013-05-13 00:44:00,
2013-05-12 20:49:00,46.1,32.2,30.00,WNW,286,5.0,15.0,58,0.00,,,0.00,WeatherCatV1.15B25,2013-05-13 00:49:00,
2013-05-12 20:54:00,46.0,32.9,30.00,NW,304,0.0,6.0,60,0.00,,,0.00,WeatherCatV1.15B25,2013-05-13 00:54:00,
2013-05-12 20:59:00,45.8,32.3,30.01,WNW,292,4.0,7.0,59,0.00,,,0.00,WeatherCatV1.15B25,2013-05-13 00:59:00,
2013-05-12 21:04:00,45.4,31.1,30.01,SW,236,7.0,16.0,57,0.00,,,0.00,WeatherCatV1.15B25,2013-05-13 01:04:00,
2013-05-12 21:09:00,45.2,30.9,30.01,WNW,295,5.0,8.0,57,0.00,,,0.00,WeatherCatV1.15B25,2013-05-13 01:09:00,
2013-05-12 21:14:00,45.1,30.8,30.02,WNW,286,5.0,5.0,57,0.00,,,0.00,WeatherCatV1.15B25,2013-05-13 01:14:00,
2013-05-12 21:19:00,44.9,30.6,30.02,West,260,9.0,9.0,57,0.00,,,0.00,WeatherCatV1.15B25,2013-05-13 01:19:00,
2013-05-12 21:24:00,44.6,29.0,30.02,West,280,5.0,12.0,54,0.00,,,0.00,WeatherCatV1.15B25,2013-05-13 01:24:00,
2013-05-12 21:29:00,44.4,29.3,30.03,West,273,3.0,9.0,55,0.00,,,0.00,WeatherCatV1.15B25,2013-05-13 01:29:00,
2013-05-12 21:34:00,44.4,30.1,30.03,West,268,0.0,6.0,57,0.00,,,0.00,WeatherCatV1.15B25,2013-05-13 01:34:00,
2013-05-12 21:39:00,44.3,30.5,30.04,NNW,327,4.0,6.0,58,0.00,,,0.00,WeatherCatV1.15B25,2013-05-13 01:39:00,
2013-05-12 21:44:00,44.3,30.0,30.04,NW,312,4.0,8.0,57,0.00,,,0.00,WeatherCatV1.15B25,2013-05-13 01:44:00,
2013-05-12 21:49:00,44.2,29.1,30.04,WSW,250,3.0,11.0,55,0.00,,,0.00,WeatherCatV1.15B25,2013-05-13 01:49:00,
2013-05-12 21:54:00,44.1,29.0,30.04,WSW,245,0.0,9.0,55,0.00,,,0.00,WeatherCatV1.15B25,2013-05-13 01:54:00,
2013-05-12 21:59:00,43.9,28.8,30.05,West,274,5.0,12.0,55,0.00,,,0.00,WeatherCatV1.15B25,2013-05-13 01:59:00,
2013-05-12 22:04:00,43.8,29.1,30.05,SW,219,11.0,14.0,56,0.00,,,0.00,WeatherCatV1.15B25,2013-05-13 02:04:00,
2013-05-12 22:09:00,43.7,28.2,30.05,West,273,5.0,11.0,54,0.00,,,0.00,WeatherCatV1.15B25,2013-05-13 02:09:00,
2013-05-12 22:14:00,43.6,28.1,30.05,SW,231,4.0,4.0,54,0.00,,,0.00,WeatherCatV1.15B25,2013-05-13 02:14:00,
2013-05-12 22:19:00,43.7,29.0,30.06,WNW,290,0.0,6.0,56,0.00,,,0.00,WeatherCatV1.15B25,2013-05-13 02:19:00,
2013-05-12 22:24:00,43.6,29.0,30.06,West,267,3.0,6.0,56,0.00,,,0.00,WeatherCatV1.15B25,2013-05-13 02:24:00,
2013-05-12 22:29:00,43.5,28.0,30.06,WSW,242,1.0,5.0,54,0.00,,,0.00,WeatherCatV1.15B25,2013-05-13 02:29:00,
2013-05-12 22:34:00,43.5,28.0,30.06,West,263,0.0,10.0,54,0.00,,,0.00,WeatherCatV1.15B25,2013-05-13 02:34:00,
2013-05-12 22:39:00,43.5,28.0,30.06,WNW,296,4.0,12.0,54,0.00,,,0.00,WeatherCatV1.15B25,2013-05-13 02:39:00,
2013-05-12 22:44:00,43.4,27.4,30.06,WNW,286,2.0,15.0,53,0.00,,,0.00,WeatherCatV1.15B25,2013-05-13 02:44:00,
2013-05-12 22:49:00,43.3,27.8,30.06,West,267,4.0,13.0,54,0.00,,,0.00,WeatherCatV1.15B25,2013-05-13 02:49:00,
2013-05-12 22:54:00,43.2,27.7,30.06,WSW,246,1.0,14.0,54,0.00,,,0.00,WeatherCatV1.15B25,2013-05-13 02:54:00,
2013-05-12 22:59:00,43.2,28.1,30.06,SW,234,5.0,7.0,55,0.00,,,0.00,WeatherCatV1.15B25,2013-05-13 02:59:00,
2013-05-12 23:04:00,43.2,27.7,30.06,WNW,283,5.0,15.0,54,0.00,,,0.00,WeatherCatV1.15B25,2013-05-13 03:04:00,
2013-05-12 23:09:00,43.1,27.1,30.06,WNW,294,2.0,11.0,53,0.00,,,0.00,WeatherCatV1.15B25,2013-05-13 03:09:00,
2013-05-12 23:14:00,43.1,28.0,30.05,West,270,1.0,13.0,55,0.00,,,0.00,WeatherCatV1.15B25,2013-05-13 03:14:00,
2013-05-12 23:19:00,43.0,28.0,30.05,West,270,4.0,5.0,55,0.00,,,0.00,WeatherCatV1.15B25,2013-05-13 03:19:00,
2013-05-12 23:24:00,42.8,28.2,30.05,SSW,210,2.0,5.0,56,0.00,,,0.00,WeatherCatV1.15B25,2013-05-13 03:24:00,
2013-05-12 23:29:00,42.9,28.7,30.06,West,268,2.0,9.0,57,0.00,,,0.00,WeatherCatV1.15B25,2013-05-13 03:29:00,
2013-05-12 23:34:00,43.0,28.0,30.05,WNW,284,2.0,10.0,55,0.00,,,0.00,WeatherCatV1.15B25,2013-05-13 03:34:00,
2013-05-12 23:39:00,42.9,27.9,30.05,NNW,330,0.0,4.0,55,0.00,,,0.00,WeatherCatV1.15B25,2013-05-13 03:39:00,
2013-05-12 23:44:00,42.9,27.9,30.05,West,270,3.0,10.0,55,0.00,,,0.00,WeatherCatV1.15B25,2013-05-13 03:44:00,
2013-05-12 23:49:00,42.9,27.9,30.05,WNW,286,0.0,4.0,55,0.00,,,0.00,WeatherCatV1.15B25,2013-05-13 03:49:00,
2013-05-12 23:54:00,42.9,28.3,30.05,North,355,0.0,9.0,56,0.00,,,0.00,WeatherCatV1.15B25,2013-05-13 03:54:00,
2013-05-12 23:59:00,42.9,28.7,30.06,West,259,2.0,6.0,57,0.00,,,0.00,WeatherCatV1.15B25,2013-05-13 03:59:00,